Smyrna, TN

5:40 PM CST on December 18, 2017 (GMT -0600)
Smyrna

Weather History for KMQY - August, 2014

Change the Weather History Date:

Saturday, August 30, 2014

  Actual Average Record
Temperature  
Mean Temperature 76 °F -  
Max Temperature 86 °F 85 °F 97 °F (2011)
Min Temperature 68 °F 67 °F 59 °F (2011)
Cooling Degree Days 11    
Growing Degree Days 26 (Base 50)    
Moisture  
Dew Point 71 °F    
Average Humidity 89    
Maximum Humidity 100    
Minimum Humidity 61    
Precipitation  
Precipitation 0.88 in - - ()
Sea Level Pressure  
Sea Level Pressure 30.08 in    
Wind  
Wind Speed 3 mph (SSW)    
Max Wind Speed 12 mph    
Max Gust Speed -    
Visibility 7 miles    
Events Rain , Thunderstorm    
Averages and records for this station are not official NWS values.
T = Trace of Precipitation, MM = Missing Value Source: NWS Daily Summary

Daily Weather History Graph

Daily Weather History Graph

Search for Another Location

Airport or City:

Trip Planner

Search our weather history database for the weather conditions in past years. The results will help you decide how hot, cold, wet, or windy it might be!

Date:

Astronomy

Aug. 30, 2014 Rise Set
Actual Time 6:16 AM CDT 7:16 PM CDT
Civil Twilight 5:49 AM CDT 7:42 PM CDT
Nautical Twilight 5:18 AM CDT 8:13 PM CDT
Astronomical Twilight 4:46 AM CDT 8:46 PM CDT
Moon 10:53 AM CDT (8/30) 10:00 PM CDT (8/30)
Length of Visible Light 13h 52m
Length of Day
13h 00m
Waxing Crescent, 23% of the Moon is Illuminated
Aug 30
Waxing Crescent
Sep 2
First Quarter
Sep 8
Full
Sep 15
Last Quarter
Sep 24
New

Hourly Weather History & Observations

Time (CDT) Temp. Heat Index Dew Point Humidity Pressure Visibility Wind Dir Wind Speed Gust Speed Precip Events Conditions
12:56 AM 70.0 °F - 65.8 °F 87% 30.09 in 10.0 mi Calm Calm - N/A   Clear
1:56 AM 68.9 °F - 65.8 °F 90% 30.07 in 10.0 mi Calm Calm - N/A   Clear
2:56 AM 68.9 °F - 65.8 °F 90% 30.07 in 10.0 mi Calm Calm - N/A   Clear
3:56 AM 70.9 °F - 64.9 °F 81% 30.07 in 10.0 mi Calm Calm - N/A   Clear
4:56 AM 68.0 °F - 64.9 °F 90% 30.08 in 10.0 mi SSE 4.6 mph - N/A   Clear
5:56 AM 68.9 °F - 64.9 °F 87% 30.09 in 10.0 mi SSE 5.8 mph - N/A   Clear
6:56 AM 68.9 °F - 65.8 °F 90% 30.09 in 10.0 mi SE 4.6 mph - N/A   Clear
7:56 AM 72.9 °F - 66.9 °F 82% 30.10 in 10.0 mi Calm Calm - N/A   Clear
8:56 AM 74.8 °F - 66.9 °F 76% 30.11 in 10.0 mi SSE 3.5 mph - N/A   Partly Cloudy
9:56 AM 77.0 °F - 68.0 °F 74% 30.12 in 10.0 mi South 4.6 mph - N/A   Partly Cloudy
10:56 AM 79.9 °F - 66.9 °F 64% 30.12 in 10.0 mi SSW 5.8 mph - 0.00 in   Clear
11:56 AM 81.0 °F 83.8 °F 68.0 °F 65% 30.12 in 10.0 mi SSW 4.6 mph - N/A   Clear
12:56 PM 82.9 °F 86.3 °F 68.9 °F 62% 30.12 in 10.0 mi WSW 4.6 mph - N/A   Partly Cloudy
1:56 PM 84.9 °F 89.4 °F 70.0 °F 61% 30.09 in 10.0 mi East 4.6 mph - N/A   Clear
3:56 PM 84.9 °F 90.7 °F 72.0 °F 65% 30.04 in 10.0 mi North 11.5 mph - N/A   Partly Cloudy
4:22 PM 80.6 °F 85.4 °F 73.4 °F 79% 30.04 in 10.0 mi NNW 8.1 mph - N/A Thunderstorm Thunderstorm
4:34 PM 78.8 °F - 73.4 °F 83% 30.04 in 2.0 mi Calm Calm - 0.09 in Rain , Thunderstorm Thunderstorms and Rain
4:42 PM 77.0 °F - 73.4 °F 89% 30.05 in 2.0 mi West 5.8 mph - 0.10 in Rain , Thunderstorm Thunderstorms and Rain
4:56 PM 77.0 °F - 74.8 °F 93% 30.06 in 2.0 mi NW 3.5 mph - 0.13 in Rain , Thunderstorm Thunderstorms and Rain
5:01 PM 77.0 °F - 75.2 °F 94% 30.04 in 3.0 mi NNW 5.8 mph - 0.00 in Rain Light Rain
5:11 PM 77.0 °F - 75.2 °F 94% 30.04 in 7.0 mi North 4.6 mph - 0.00 in Rain Light Rain
5:42 PM 78.8 °F - 75.2 °F 89% 30.06 in 10.0 mi East 8.1 mph - 0.00 in   Mostly Cloudy
5:56 PM 75.9 °F - 72.9 °F 90% 30.07 in 10.0 mi ESE 9.2 mph - 0.00 in   Mostly Cloudy
6:45 PM 73.4 °F - 73.4 °F 100% 30.07 in 5.0 mi South 4.6 mph - 0.06 in Rain , Thunderstorm Light Thunderstorms and Rain
6:56 PM 72.9 °F - 72.9 °F 100% 30.09 in 2.0 mi Calm Calm - 0.11 in Rain , Thunderstorm Heavy Thunderstorms and Rain
7:00 PM 73.4 °F - 73.4 °F 100% 30.07 in 1.8 mi WNW 3.5 mph - 0.02 in Rain , Thunderstorm Heavy Thunderstorms and Rain
7:08 PM 73.4 °F - 73.4 °F 100% 30.07 in 1.8 mi North 4.6 mph - 0.08 in Rain , Thunderstorm Heavy Thunderstorms and Rain
7:12 PM 73.4 °F - 73.4 °F 100% 30.08 in 1.2 mi WNW 4.6 mph - 0.11 in Rain , Thunderstorm Heavy Thunderstorms and Rain
7:21 PM 73.4 °F - 73.4 °F 100% 30.08 in 1.0 mi Calm Calm - 0.31 in Rain , Thunderstorm Heavy Thunderstorms and Rain
7:27 PM 73.4 °F - 73.4 °F 100% 30.07 in 0.8 mi Calm Calm - 0.38 in Rain , Thunderstorm Heavy Thunderstorms and Rain
7:30 PM 73.4 °F - 73.4 °F 100% 30.08 in 1.0 mi South 5.8 mph - 0.38 in Rain Heavy Rain
7:34 PM 73.4 °F - 73.4 °F 100% 30.09 in 1.5 mi South 5.8 mph - 0.39 in Rain Heavy Rain
7:38 PM 73.4 °F - 73.4 °F 100% 30.09 in 2.5 mi South 5.8 mph - 0.40 in Rain Rain
7:56 PM 73.9 °F - 72.9 °F 96% 30.11 in 2.0 mi SSW 6.9 mph - 0.46 in Rain Heavy Rain
8:35 PM 73.4 °F - 71.6 °F 94% 30.09 in 4.0 mi Variable 5.8 mph - 0.09 in Rain Rain
8:56 PM 72.9 °F - 72.0 °F 97% 30.12 in 5.0 mi SW 9.2 mph - 0.14 in Rain Light Rain
9:05 PM 73.4 °F - 71.6 °F 94% 30.10 in 5.0 mi SSW 6.9 mph - 0.01 in Rain Rain
9:56 PM 72.0 °F - 70.0 °F 93% 30.12 in 10.0 mi Variable 5.8 mph - 0.02 in Rain Light Rain
10:16 PM 71.6 °F - 69.8 °F 94% 30.09 in 8.0 mi South 3.5 mph - 0.02 in Rain Light Rain
10:56 PM 70.9 °F - 70.0 °F 97% 30.09 in 10.0 mi Calm Calm - 0.02 in   Clear
11:56 PM 70.9 °F - 70.0 °F 97% 30.10 in 10.0 mi South 5.8 mph - N/A   Clear